Flag for U.S.A. Weather past 2 weeks in Tuba City, Arizona, U.S.A.

Now
48 °F

Clear.


Feels Like: 48 °F
Forecast: 59 / 93 °F
Wind: No wind

Location: Grand Canyon National Park Airport

Current Time: Aug 4, 2015 at 3:55:48 AM

Latest Report: Aug 4, 2015 at 2:54 AM


Visibility: 10 mi

Pressure: 29.96 "Hg (24.95 "Hg at 1510m altitude)

Humidity: 68%

Dew point: 38 °F

Location of Tuba CityLocation

Historic Weather in Tuba City — Graph

°F

Tuba City temperature yesterday

Maximum temperature yesterday: 86 °F (at 5:54 PM)
Minimum temperature yesterday: 45 °F (at 5:54 AM)
Average temperature yesterday: 67 °F

Past Weeks' High & Low Weather Summary

 TemperatureHumidityPressure
High88 °F (Jul 29, 2:54 PM)97% (Aug 3, 3:54 AM)30.35 "Hg (Aug 3, 3:54 AM)
Low39 °F (Jul 28, 6:54 AM)6% (Jul 26, 2:54 PM)29.83 "Hg (Jul 21, 8:54 PM)
Average66 °F48%29.99 "Hg
* Reported Jul 20 2:54 AM — Aug 4 2:54 AM, Tuba City, Weather by CustomWeather, © 2015

Note: Actual official high and low records may vary slightly from our data, if they occured in-between our weather recording intervals... More about our weather records

Advertising

Tuba City weather history for previous 24 hours

 ConditionsComfort  
Time TempWeatherWind HumidityBarometerVisibility
2:54 AM
Tue, Aug 4
48 °FClear.No wind68%29.96 "Hg10 mi
1:54 AM51 °FClear.No wind63%29.97 "Hg10 mi
12:54 AM52 °FClear.3 mph64%29.96 "Hg10 mi
11:54 PM
Mon, Aug 3
58 °FClear.No wind51%29.93 "Hg10 mi
10:54 PM60 °FClear.6 mph49%29.93 "Hg10 mi
9:54 PM62 °FClear.No wind43%29.91 "Hg10 mi
8:54 PM71 °FPassing clouds.3 mph31%29.88 "Hg10 mi
7:54 PM80 °FPassing clouds.9 mph22%29.88 "Hg10 mi
6:54 PM82 °FPassing clouds.10 mph19%29.89 "Hg10 mi
5:54 PM86 °FScattered clouds.14 mph16%29.90 "Hg10 mi
4:54 PM85 °FScattered clouds.10 mph18%29.92 "Hg10 mi
3:54 PM85 °FScattered clouds.14 mph19%29.93 "Hg10 mi
2:54 PM85 °FScattered clouds.9 mph21%29.94 "Hg10 mi
1:54 PM81 °FPartly sunny.3 mph24%29.98 "Hg10 mi
12:54 PM82 °FPassing clouds.8 mph22%29.97 "Hg10 mi
11:54 AM81 °FPassing clouds.15 mph22%29.97 "Hg10 mi
10:54 AM78 °FSunny.7 mph30%29.97 "Hg10 mi
9:54 AM76 °FSunny.10 mph35%29.97 "Hg10 mi
8:54 AM70 °FSunny.No wind53%29.96 "Hg10 mi
7:54 AM56 °FSunny.3 mph84%29.97 "Hg10 mi
6:54 AM47 °FSunny.No wind97%29.99 "Hg10 mi
5:54 AM45 °FClear.No wind93%29.99 "Hg10 mi
4:54 AM46 °FFog.No wind93%29.99 "Hg5 mi
3:54 AM47 °FClear.No wind97%30.01 "Hg10 mi
Weather by CustomWeather, © 2015

See weather overviewHow to use our weather pages